Location: Ferris
(32.5340°N, 96.6656°W)
Time: 23:46:19
(UTC+00:00)

Cosmos 1354 Rocket - Pass Details

Date: 25 May 2026
Orbit: 761 x 778 km, 74.0° (Epoch: 7 June)

Event Time Altitude Azimuth Distance (km) Brightness Sun altitude
Rises 04:20:08 0° 324° (NW) 3,225 8.5 -28.9°
Reaches altitude 10° 04:23:08 10° 306° (NW) 2,294 7.3 -29.3°
Maximum altitude 04:26:40 19° 263° (W) 1,759 6.1 -29.7°
Enters shadow 04:27:41 18° 248° (WSW) 1,806 6.0 -29.8°
